User: anonymous
Location: Hopkins Observatory
(42.6965°N, 73.1843°W)
Time: 17:24:02
(UTC-04:00)
Language:

RS-15 - Orbit

View from above orbital plane
View from above orbital plane
View from above satellite
View from above satellite

Ground track
Ground track

The orbit data is extracted from the following two-line orbital elements,

1 23439U 94085A   14103.56703923 -.00000039  00000-0  10000-3 0  6670
2 23439 064.8195 296.2316 0145702 095.1055 266.6517 11.27561240794719
Epoch (UTC): 13 April 2014 13:36:32
Eccentricity: 0.0145702
inclination: 64.8195°
perigee height: 1900 km
apogee height: 2145 km
right ascension of ascending node: 296.2316°
argument of perigee: 95.1055°
revolutions per day: 11.27561240
mean anomaly at epoch: 266.6517°
orbit number at epoch: 79471

The dashed part of the orbit path shows where the satellite is in the earth's shadow,  

DLR